Wind_Speed
4 4 5 5 6 8 5 1 4 7 8 8 6 6 5 6 7 8 8 9 9 9 8 8 7 6 5 5 5 5 4 4 4 3 2 2 1 2 2 2 2 2 2 2 1 1 1 3 3
4 4 4 4 5 5 2 3 5 8 8 8 6 6 7 7 7 8 9 9 9 9 9 8 8 7 6 6 5 5 5 5 4 3 3 2 2 2 2 2 2 2 3 3 2 2 2 3 3
5 4 3 3 4 3 3 4 5 7 9 8 7 7 8 9 9 9 10 10 10 9 8 8 8 7 7 7 6 5 5 5 4 4 3 3 3 3 2 2 2 2 3 3 3 3 2 3 3
5 5 4 2 1 4 7 7 6 6 8 9 9 9 9 10 10 11 11 11 11 10 9 9 8 8 8 7 7 6 6 6 6 5 4 4 4 4 3 2 2 2 2 3 3 3 3 3 3
5 4 3 1 4 4 6 8 8 7 8 9 10 11 11 11 12 12 12 12 11 10 10 9 9 8 8 8 7 7 6 6 6 6 5 4 4 4 3 3 3 3 3 4 4 3 3 3 3
7 5 4 3 5 4 7 9 8 8 9 9 11 13 12 11 12 12 12 12 12 10 10 10 9 9 9 9 8 8 7 7 7 6 5 5 5 4 4 4 4 4 4 4 4 3 3 3 3
8 7 6 5 6 7 8 10 9 8 8 9 10 12 12 12 12 12 13 13 12 11 10 10 9 9 9 9 9 8 9 8 7 6 6 5 5 5 4 5 4 4 3 3 4 3 4 4 3
9 8 8 7 5 7 9 11 10 9 9 10 10 12 12 13 13 13 14 14 13 12 11 10 10 10 9 9 9 8 8 8 7 7 6 5 5 5 5 5 4 4 4 3 4 4 4 4 4
10 10 9 6 4 8 10 12 11 10 10 10 10 13 12 13 15 15 15 14 13 13 12 11 10 10 9 9 9 9 9 9 8 7 7 6 6 5 6 5 5 4 4 4 4 4 4 4 5
11 11 10 9 9 10 11 12 12 11 11 11 12 13 13 14 14 15 14 14 13 13 12 12 12 11 10 10 10 10 10 9 8 8 7 7 7 7 7 7 6 6 5 5 5 5 5 5 6
12 13 11 10 13 12 11 13 13 12 12 12 14 15 13 14 14 14 14 14 13 12 12 12 12 12 11 11 11 11 11 9 8 9 8 8 8 8 8 8 8 7 6 6 6 6 6 7 7
14 13 13 13 14 14 13 14 14 13 14 13 15 16 15 14 14 13 14 14 13 12 12 12 12 12 12 12 12 12 11 10 9 9 9 9 9 9 9 9 9 8 7 7 7 7 7 8 8
15 14 15 16 15 15 16 16 15 15 14 15 15 16 16 15 13 13 14 14 12 12 12 12 12 12 12 12 12 11 11 10 10 9 9 9 9 9 9 9 9 9 8 8 8 8 8 9 9
15 15 17 17 16 16 16 16 16 15 15 17 18 17 16 14 14 14 14 13 13 13 12 13 13 12 12 12 13 12 11 11 11 10 10 10 10 10 10 10 10 9 9 9 9 9 9 9 10
17 16 17 17 16 16 16 17 17 16 17 17 18 18 16 14 14 15 14 12 13 13 13 13 13 12 12 13 13 12 12 12 12 12 12 11 11 10 10 10 11 11 11 10 10 10 10 10 10
18 19 19 17 16 16 17 18 18 17 17 18 18 18 17 17 16 16 15 14 13 13 13 13 13 12 12 12 12 13 13 13 13 12 12 11 11 11 11 11 11 11 11 12 12 11 11 11 11
17 18 17 17 17 17 18 19 19 19 19 19 19 18 18 17 17 17 16 14 14 13 14 14 13 14 14 14 14 14 14 15 14 14 13 12 12 12 12 12 12 12 12 12 12 12 12 12 11
16 16 15 16 17 17 19 20 18 18 20 19 19 18 18 17 17 16 17 15 15 15 15 15 15 15 15 15 15 15 16 16 16 15 14 13 13 14 14 14 13 13 12 12 12 12 12 12 12
17 17 17 18 17 19 20 19 17 17 20 19 19 19 18 18 17 17 17 16 16 16 17 16 16 16 16 17 17 17 17 17 16 16 15 15 14 14 14 14 14 14 14 13 13 13 13 13 13
19 19 18 18 18 19 19 18 18 17 18 19 20 20 19 19 18 18 17 17 17 18 18 17 17 18 18 18 18 18 18 17 17 17 17 17 15 15 15 14 13 14 14 15 14 14 13 14 15
20 20 19 18 17 18 19 20 20 18 19 20 21 20 19 20 19 18 18 16 17 18 18 18 19 19 19 19 19 19 19 18 17 17 17 16 15 14 14 13 13 13 14 14 15 15 15 15 15
21 19 19 19 20 19 19 20 21 20 21 20 21 21 20 21 20 20 20 17 17 18 18 18 19 20 19 19 19 19 19 19 18 17 17 17 16 15 14 14 14 14 14 14 15 16 16 16 16
21 19 20 20 21 21 20 21 23 21 22 22 22 23 21 21 21 20 21 19 18 18 18 19 19 20 19 20 20 20 20 19 18 17 17 16 15 15 15 15 15 15 15 16 16 16 17 17 17
21 20 20 20 21 23 21 21 24 23 23 22 23 23 21 20 21 22 21 20 20 20 20 20 21 21 20 20 20 20 19 20 18 17 16 16 15 15 16 16 16 16 17 17 17 17 17 18 18
22 21 20 20 22 23 20 22 24 22 23 25 26 25 22 21 22 22 22 23 23 22 22 22 22 21 20 21 20 20 20 20 19 17 17 16 16 17 17 17 17 18 18 18 18 17 18 19 18
23 22 22 21 22 21 21 24 23 22 23 24 27 26 24 23 22 23 23 24 24 24 23 23 22 22 22 22 21 20 21 21 20 19 18 17 17 18 19 19 19 19 19 18 18 17 17 18 18
24 24 22 22 21 21 21 22 23 23 24 25 26 25 24 24 23 23 24 24 24 25 23 23 23 23 23 23 23 22 22 21 20 19 19 19 19 19 20 20 20 20 20 20 19 18 18 19 19
25 24 23 23 23 23 21 21 25 26 24 25 25 24 24 25 25 25 26 26 26 25 25 25 24 23 24 24 24 24 23 22 21 21 20 20 20 20 21 21 21 21 21 20 20 19 19 20 20
24 25 25 25 24 24 23 23 25 26 26 26 26 27 27 26 27 27 27 27 26 25 26 26 25 25 25 25 25 24 23 23 22 22 22 22 22 21 22 22 22 22 22 21 21 20 20 21 21
23 25 26 26 26 25 25 26 26 26 26 28 28 27 27 26 27 27 27 27 26 27 27 27 27 26 26 25 25 25 24 24 23 23 23 24 24 23 24 24 24 24 23 22 22 22 21 21 21
Wind_Direction
121 111 97 90 85 69 58 7 310 309 312 320 329 333 329 326 333 337 342 340 344 346 347 347 343 342 339 334 331 327 324 322 322 317 307 305 278 264 273 284 284 250 233 228 227 228 223 244 243
139 129 109 84 61 39 29 291 305 309 311 324 334 333 322 327 330 330 339 337 339 345 342 342 341 337 333 329 327 325 324 323 320 320 306 297 290 274 278 290 289 259 237 231 228 243 246 254 242
156 153 128 80 47 345 307 286 306 310 311 321 325 316 322 324 329 326 330 331 335 342 342 340 338 338 334 328 322 322 321 320 321 313 304 297 292 286 299 302 295 268 245 238 246 247 252 263 263
173 164 134 111 332 294 301 297 285 300 304 313 318 312 319 322 325 327 327 328 332 336 340 338 336 336 332 328 320 320 319 316 314 309 303 303 296 293 292 294 287 275 249 244 246 247 257 266 266
187 176 153 189 280 279 295 289 296 298 298 302 305 304 312 319 321 323 324 325 328 332 333 333 333 332 329 325 319 316 312 311 312 314 307 301 299 296 287 289 286 273 253 246 247 253 261 255 269
196 191 229 235 271 276 281 279 286 293 292 299 302 301 310 317 318 321 323 323 326 331 330 330 330 328 324 322 319 316 310 309 309 311 307 302 299 292 286 289 287 274 259 253 254 253 254 257 268
216 208 234 233 246 259 270 275 280 279 284 290 295 299 309 313 313 318 320 321 322 327 328 327 326 325 320 318 316 312 309 307 309 308 305 303 302 294 291 290 288 283 268 261 255 256 259 259 264
223 224 225 224 239 264 273 269 272 272 277 280 290 299 308 309 313 317 316 317 319 323 324 323 319 322 317 313 312 305 303 298 303 304 302 302 302 300 293 293 287 284 272 267 260 256 259 258 265
230 232 238 233 239 268 268 272 270 274 282 284 287 294 305 309 311 315 313 313 316 320 321 320 318 318 315 312 315 312 307 295 293 293 292 294 296 295 291 291 288 279 267 262 256 253 260 265 276
240 243 237 233 227 240 256 265 273 276 281 284 285 294 302 306 308 313 311 311 315 316 317 317 318 319 318 318 316 312 306 297 291 290 288 288 287 287 287 288 289 276 261 260 259 259 259 264 272
246 249 240 239 237 234 251 261 265 272 275 279 283 288 293 299 305 310 309 304 308 312 314 315 315 316 316 317 313 309 303 297 296 290 290 288 285 282 277 278 281 278 268 265 261 260 260 259 265
248 250 249 249 249 243 246 259 263 267 273 273 275 283 289 292 298 303 304 302 303 308 310 312 310 311 315 317 316 311 307 297 299 293 289 289 287 284 279 276 274 272 265 265 266 263 262 264 269
250 251 251 248 250 250 251 258 265 269 269 271 271 282 288 289 291 295 298 301 299 301 303 308 309 307 309 312 312 311 310 305 304 297 291 293 290 289 284 280 277 273 267 267 265 264 265 269 271
250 252 252 248 252 256 257 261 266 266 268 272 275 278 281 284 286 290 292 294 303 309 309 307 308 305 305 305 306 308 306 305 303 299 293 290 293 294 289 284 280 275 273 272 268 265 268 272 274
246 249 253 256 259 257 260 262 263 269 271 271 277 280 279 279 278 283 289 291 297 304 307 306 304 305 305 305 305 307 304 303 301 297 289 289 291 293 291 285 280 278 275 270 267 266 269 273 275
249 250 252 253 258 258 259 260 262 265 267 269 273 277 277 275 274 278 283 285 290 297 301 301 303 305 306 307 305 304 302 300 298 298 290 287 287 288 286 286 281 277 273 270 266 267 269 271 274
250 254 256 255 255 254 256 258 260 265 270 271 273 273 273 276 274 276 280 280 288 293 295 296 296 300 304 305 302 302 302 301 296 294 290 286 285 283 283 281 282 280 272 268 266 266 268 271 273
252 254 259 257 250 257 259 258 256 261 268 271 270 271 274 275 275 277 279 278 283 287 290 291 291 295 298 299 299 299 299 299 295 292 292 290 288 285 284 283 281 281 275 267 264 262 265 268 271
247 248 249 252 248 254 257 255 258 258 264 268 273 276 277 275 275 276 277 276 281 283 283 285 288 291 293 294 296 297 297 297 295 291 290 289 286 284 284 283 279 279 275 267 267 265 264 268 272
246 247 249 252 253 256 257 255 255 257 262 267 269 273 276 276 277 276 270 271 276 281 281 286 288 289 291 294 296 296 297 297 294 292 287 287 284 281 282 280 277 275 274 269 268 270 268 269 272
246 249 250 247 247 255 261 258 258 256 256 262 266 269 272 277 278 279 275 273 276 277 280 283 286 290 292 293 296 295 296 297 294 290 287 286 283 279 277 277 277 274 275 276 269 268 269 271 272
247 248 247 245 244 246 252 259 262 262 261 259 264 268 270 273 277 279 278 273 276 279 281 283 286 290 291 294 296 294 295 296 296 289 287 284 281 277 275 276 277 276 277 280 277 272 270 272 272
245 246 249 247 247 247 247 254 262 261 261 259 264 267 268 270 273 276 277 273 275 276 278 283 287 291 291 293 296 295 294 293 294 291 287 282 277 274 274 274 275 275 276 278 275 274 273 273 273
245 243 245 246 248 249 247 253 260 264 263 262 266 269 267 272 274 274 276 275 277 276 276 281 285 287 290 293 294 293 292 293 291 288 285 281 278 276 276 276 276 277 278 278 278 275 273 273 273
242 239 240 243 246 250 251 252 258 261 262 262 265 268 268 271 274 275 274 275 277 277 277 280 284 284 286 290 290 289 289 292 289 285 282 280 278 277 276 277 276 277 279 281 281 281 276 273 273
243 241 239 242 248 253 254 254 258 258 260 263 265 266 266 267 271 272 275 276 276 275 276 279 282 284 286 287 288 287 288 287 285 282 280 280 279 279 278 278 279 279 281 280 281 280 278 274 276
239 240 242 246 247 253 256 261 260 256 255 259 262 264 264 266 269 270 273 275 275 275 275 279 280 281 283 285 288 287 285 283 280 277 276 277 278 279 281 280 280 279 280 280 278 277 277 276 277
238 242 240 240 243 248 254 256 263 261 259 260 261 262 264 268 268 268 272 272 273 273 274 275 277 278 280 282 285 284 281 279 278 275 275 275 276 278 280 281 280 279 280 280 276 276 276 277 277
237 238 240 241 240 245 251 251 257 258 260 262 262 262 264 264 267 267 269 273 273 272 272 275 276 278 280 282 283 283 280 279 277 276 275 275 275 277 278 280 278 278 277 277 275 275 276 277 278
238 240 241 241 240 242 249 253 256 257 255 261 263 264 266 266 267 267 269 270 272 272 273 275 276 277 279 280 282 282 277 277 277 275 274 275 276 277 278 278 277 276 276 274 273 274 276 277 278
Height
5896 5897 5897 5898 5898 5897 5898 5900 5900 5899 5897 5896 5894 5893 5891 5891 5890 5891 5887 5885 5884 5883 5881 5880 5879 5878 5877 5876 5876 5875 5874 5873 5873 5872 5871 5870 5870 5870 5870 5870 5870 5869 5870 5870 5870 5870 5870 5870 5870
5896 5897 5898 5898 5897 5898 5899 5900 5899 5898 5897 5895 5894 5893 5891 5890 5889 5888 5886 5885 5884 5883 5881 5880 5879 5878 5877 5876 5875 5875 5874 5873 5872 5872 5871 5870 5870 5870 5870 5870 5870 5869 5869 5869 5870 5870 5870 5870 5870
5896 5897 5898 5897 5898 5899 5899 5899 5898 5897 5896 5895 5894 5893 5892 5890 5889 5888 5886 5885 5883 5883 5881 5879 5878 5877 5876 5876 5875 5874 5874 5873 5872 5872 5871 5870 5870 5870 5870 5870 5869 5869 5869 5869 5870 5870 5870 5870 5870
5896 5897 5897 5898 5899 5900 5900 5898 5898 5897 5896 5895 5894 5892 5891 5890 5888 5887 5886 5884 5883 5882 5881 5879 5878 5877 5876 5875 5875 5874 5873 5873 5872 5871 5871 5870 5870 5869 5869 5869 5869 5869 5869 5869 5869 5870 5870 5870 5870
5895 5895 5896 5897 5899 5899 5900 5899 5897 5897 5896 5895 5893 5891 5890 5889 5888 5886 5885 5884 5882 5881 5880 5879 5878 5877 5876 5875 5874 5873 5873 5872 5872 5871 5871 5870 5870 5869 5869 5869 5869 5869 5869 5869 5869 5870 5870 5870 5870
5893 5894 5895 5895 5899 5899 5900 5899 5897 5897 5896 5894 5892 5889 5888 5888 5887 5886 5884 5883 5881 5881 5879 5878 5877 5876 5875 5874 5873 5873 5872 5872 5871 5871 5870 5870 5869 5869 5869 5868 5868 5868 5868 5869 5869 5869 5869 5870 5870
5891 5892 5893 5894 5898 5899 5899 5898 5897 5896 5894 5893 5891 5888 5887 5887 5885 5885 5883 5882 5880 5879 5879 5877 5876 5875 5874 5873 5873 5872 5871 5871 5870 5870 5870 5869 5869 5868 5868 5868 5867 5868 5868 5868 5868 5869 5869 5869 5870
5889 5891 5891 5892 5894 5897 5898 5896 5895 5894 5893 5891 5890 5887 5886 5886 5884 5883 5882 5880 5879 5878 5877 5877 5876 5874 5873 5872 5872 5871 5870 5870 5870 5869 5869 5869 5868 5868 5867 5867 5867 5867 5867 5868 5868 5868 5869 5869 5869
5887 5889 5889 5891 5893 5896 5896 5895 5893 5892 5891 5890 5889 5887 5885 5884 5883 5882 5881 5879 5878 5877 5876 5875 5874 5873 5872 5871 5870 5869 5869 5868 5868 5868 5868 5868 5868 5867 5867 5867 5866 5867 5867 5867 5868 5868 5868 5868 5869
5885 5886 5888 5890 5892 5893 5893 5893 5892 5891 5890 5888 5887 5886 5884 5883 5882 5881 5879 5878 5877 5876 5875 5874 5873 5872 5871 5870 5869 5868 5868 5867 5867 5867 5867 5867 5867 5866 5866 5866 5866 5866 5866 5867 5867 5867 5868 5868 5868
5882 5883 5885 5886 5888 5888 5890 5890 5889 5889 5888 5887 5885 5883 5883 5882 5881 5879 5878 5877 5875 5875 5874 5873 5871 5870 5870 5869 5868 5867 5867 5866 5866 5865 5865 5865 5865 5865 5865 5865 5865 5865 5865 5866 5866 5866 5867 5867 5867
5879 5881 5882 5884 5884 5885 5886 5886 5886 5886 5885 5885 5882 5881 5881 5880 5880 5878 5877 5875 5874 5873 5873 5872 5871 5870 5869 5868 5867 5866 5865 5865 5865 5864 5864 5864 5864 5864 5863 5863 5863 5864 5864 5864 5865 5865 5865 5866 5866
5875 5878 5879 5880 5881 5882 5882 5882 5883 5882 5882 5881 5880 5879 5878 5878 5877 5876 5875 5873 5872 5872 5871 5871 5870 5869 5868 5867 5866 5865 5864 5864 5864 5863 5862 5862 5862 5862 5862 5862 5862 5862 5862 5863 5863 5863 5864 5864 5864
5872 5873 5875 5876 5877 5878 5878 5879 5879 5879 5879 5878 5877 5876 5876 5876 5874 5873 5872 5871 5870 5870 5869 5869 5868 5867 5867 5866 5865 5864 5864 5863 5862 5862 5861 5861 5861 5861 5861 5860 5860 5860 5860 5861 5861 5861 5862 5862 5862
5868 5869 5870 5871 5873 5874 5875 5875 5876 5876 5876 5875 5874 5873 5873 5873 5872 5871 5868 5869 5869 5869 5868 5867 5867 5866 5865 5865 5864 5863 5862 5861 5861 5860 5860 5859 5859 5859 5859 5859 5859 5859 5859 5859 5859 5860 5860 5860 5861
5863 5864 5865 5868 5869 5871 5873 5872 5873 5872 5872 5872 5872 5871 5870 5870 5869 5869 5868 5868 5868 5867 5867 5866 5865 5864 5863 5863 5862 5861 5860 5859 5859 5858 5857 5857 5857 5856 5856 5857 5857 5856 5856 5857 5857 5858 5859 5859 5859
5858 5860 5862 5865 5866 5867 5868 5867 5868 5868 5868 5868 5868 5867 5867 5867 5866 5866 5865 5865 5865 5865 5865 5864 5863 5862 5862 5861 5860 5859 5858 5857 5856 5856 5855 5855 5854 5854 5854 5854 5854 5854 5854 5854 5855 5856 5856 5857 5857
5856 5857 5859 5861 5862 5862 5863 5863 5864 5864 5865 5864 5864 5863 5863 5864 5864 5863 5862 5862 5862 5862 5862 5861 5861 5860 5859 5858 5857 5856 5855 5854 5853 5853 5852 5852 5852 5852 5851 5851 5852 5852 5852 5852 5852 5853 5854 5854 5855
5852 5854 5856 5858 5857 5859 5859 5859 5860 5860 5861 5861 5860 5859 5860 5860 5861 5860 5859 5859 5859 5859 5859 5858 5858 5857 5856 5856 5855 5854 5852 5851 5850 5849 5849 5848 5848 5848 5848 5848 5849 5849 5849 5849 5849 5850 5851 5851 5852
5847 5849 5851 5853 5854 5855 5855 5855 5856 5856 5856 5856 5857 5857 5856 5856 5857 5856 5855 5856 5855 5855 5854 5854 5854 5854 5853 5852 5851 5850 5849 5848 5847 5846 5846 5844 5844 5844 5845 5845 5845 5846 5846 5847 5847 5847 5848 5848 5849
5843 5845 5847 5849 5851 5851 5851 5852 5851 5852 5853 5853 5853 5853 5852 5852 5853 5852 5850 5851 5852 5852 5852 5850 5851 5850 5849 5848 5848 5846 5845 5844 5844 5843 5842 5841 5841 5841 5841 5842 5842 5843 5843 5843 5843 5844 5844 5845 5845
5839 5841 5843 5845 5846 5847 5849 5847 5847 5847 5848 5848 5848 5849 5849 5849 5849 5848 5847 5847 5848 5848 5847 5846 5847 5847 5846 5845 5844 5843 5842 5841 5840 5839 5838 5838 5838 5838 5838 5839 5839 5840 5840 5840 5840 5840 5841 5842 5842
5834 5837 5838 5839 5840 5841 5843 5844 5842 5842 5843 5844 5844 5845 5845 5844 5845 5845 5844 5843 5844 5844 5844 5843 5843 5843 5842 5841 5840 5839 5838 5837 5836 5835 5835 5834 5835 5835 5835 5836 5836 5837 5837 5837 5837 5837 5837 5838 5838
5829 5831 5833 5834 5835 5836 5837 5839 5838 5838 5838 5838 5839 5840 5839 5840 5840 5840 5840 5839 5840 5840 5839 5840 5840 5839 5838 5837 5836 5835 5834 5833 5833 5832 5832 5832 5832 5832 5832 5833 5833 5833 5834 5834 5833 5833 5833 5833 5834
5823 5825 5827 5829 5829 5830 5833 5834 5833 5834 5834 5834 5835 5835 5835 5835 5836 5835 5835 5835 5835 5835 5835 5835 5835 5834 5834 5833 5832 5831 5830 5829 5829 5828 5828 5828 5828 5828 5829 5829 5829 5829 5830 5829 5829 5829 5829 5829 5829
5817 5820 5822 5824 5826 5828 5829 5828 5828 5828 5829 5829 5829 5829 5829 5830 5830 5830 5830 5830 5830 5830 5830 5830 5830 5830 5829 5828 5827 5827 5826 5825 5824 5824 5825 5824 5825 5825 5825 5825 5825 5825 5825 5825 5825 5825 5824 5825 5825
5812 5814 5817 5820 5821 5823 5824 5823 5822 5822 5822 5824 5823 5823 5824 5824 5824 5825 5825 5824 5824 5824 5824 5824 5825 5825 5824 5824 5823 5822 5821 5821 5820 5820 5820 5820 5820 5820 5820 5820 5820 5820 5820 5820 5820 5820 5820 5820 5820
5806 5809 5811 5813 5814 5816 5818 5819 5817 5814 5816 5817 5817 5817 5817 5818 5818 5818 5819 5819 5819 5819 5819 5819 5819 5819 5819 5818 5818 5817 5816 5816 5815 5815 5815 5816 5816 5816 5816 5816 5815 5815 5815 5815 5815 5815 5815 5814 5814
5799 5802 5804 5806 5808 5810 5812 5814 5809 5808 5810 5811 5811 5811 5812 5812 5812 5812 5812 5812 5812 5813 5814 5813 5813 5813 5813 5812 5812 5811 5811 5810 5810 5810 5810 5810 5810 5810 5810 5810 5810 5810 5810 5810 5810 5810 5809 5809 5809
5793 5795 5797 5799 5801 5803 5804 5807 5802 5801 5802 5804 5804 5804 5804 5805 5806 5805 5806 5806 5806 5807 5808 5807 5807 5807 5807 5806 5806 5805 5805 5804 5804 5804 5804 5804 5804 5804 5804 5804 5804 5804 5804 5804 5804 5804 5804 5803 5803